Faribault, MN

3:24 PM CST on December 09, 2019 (GMT -0600)
Faribault Municipal

Weather History for KFBL - November, 2019

Change the Weather History Date:

Tuesday, November 19, 2019

  Actual Average Record
Temperature  
Mean Temperature 38 °F -  
Max Temperature 42 °F 40 °F 63 °F (1953)
Min Temperature 33 °F 23 °F 0 °F (1951)
Degree Days  
Heating Degree Days 28    
Moisture  
Dew Point 37 °F    
Average Humidity 95    
Maximum Humidity 100    
Minimum Humidity 81    
Precipitation  
Precipitation 0.03 in - - ()
Sea Level Pressure  
Sea Level Pressure 29.81 in    
Wind  
Wind Speed 1 mph (West)    
Max Wind Speed 12 mph    
Max Gust Speed -    
Visibility 7 miles    
Events Fog , Rain    
Averages and records for this station are not official NWS values.
T = Trace of Precipitation, MM = Missing Value Source: NWS Daily Summary

Daily Weather History Graph

Daily Weather History Graph

Search for Another Location

Airport or City:

Astronomy

Nov. 19, 2019 Rise Set
Actual Time 7:14 AM CST 4:42 PM CST
Civil Twilight 6:42 AM CST 5:14 PM CST
Nautical Twilight 6:06 AM CST 5:49 PM CST
Astronomical Twilight 5:32 AM CST 6:24 PM CST
Moon 11:41 PM CST (11/19) 1:23 PM CST (11/19)
Length of Visible Light 10h 32m
Length of Day
9h 28m
Waning Gibbous, 51% of the Moon is Illuminated
Nov 19
Waning Gibbous
Nov 19
Last Quarter
Nov 26
New
Dec 4
First Quarter
Dec 11
Full

Hourly Weather History & Observations

Time (CST) Temp. Windchill Dew Point Humidity Pressure Visibility Wind Dir Wind Speed Gust Speed Precip Events Conditions
12:15 AM 35.6 °F - 35.6 °F 100% 29.69 in 2.5 mi Calm Calm - 0.01 in Rain Light Rain
12:35 AM 35.6 °F - 35.6 °F 100% 29.68 in 2.0 mi Calm Calm - 0.01 in Rain Rain
12:55 AM 35.6 °F - 35.6 °F 100% 29.69 in 2.0 mi Calm Calm - 0.01 in Rain Rain
1:15 AM 35.6 °F - 35.6 °F 100% 29.68 in 2.0 mi Calm Calm - 0.01 in Rain Rain
1:16 AM 35.6 °F - 35.6 °F 100% 29.68 in 2.0 mi Calm Calm - 0.01 in Rain Rain
1:35 AM 35.6 °F - 35.6 °F 100% 29.68 in 2.0 mi Calm Calm - 0.01 in Rain Light Rain
1:55 AM 35.6 °F - 35.6 °F 100% 29.68 in 1.8 mi Calm Calm - 0.01 in Rain Light Rain
1:56 AM 35.6 °F - 35.6 °F 100% 29.68 in 1.8 mi Calm Calm - N/A Rain Light Rain
2:15 AM 35.6 °F - 35.6 °F 100% 29.69 in 1.8 mi Calm Calm - 0.01 in Rain Light Rain
2:35 AM 35.6 °F - 35.6 °F 100% 29.68 in 1.8 mi Calm Calm - 0.01 in   Light Drizzle
2:55 AM 35.6 °F - 35.6 °F 100% 29.68 in 1.5 mi Calm Calm - 0.01 in   Overcast
2:56 AM 35.6 °F - 35.6 °F 100% 29.68 in 1.5 mi Calm Calm - N/A   Overcast
3:15 AM 35.6 °F - 35.6 °F 100% 29.69 in 1.5 mi Calm Calm - N/A   Overcast
3:35 AM 35.6 °F - 35.6 °F 100% 29.69 in 1.0 mi Calm Calm - N/A   Overcast
3:36 AM 35.6 °F - 35.6 °F 100% 29.69 in 1.0 mi Calm Calm - N/A   Overcast
3:55 AM 35.6 °F - 35.6 °F 100% 29.69 in 0.8 mi Calm Calm - N/A   Overcast
4:15 AM 35.6 °F - 35.6 °F 100% 29.69 in 0.5 mi Calm Calm - N/A Fog Fog
4:16 AM 35.6 °F - 35.6 °F 100% 29.69 in 0.5 mi Calm Calm - N/A Fog Fog
4:35 AM 35.6 °F - 35.6 °F 100% 29.69 in 0.8 mi Calm Calm - N/A   Overcast
4:55 AM 35.6 °F - 35.6 °F 100% 29.70 in 0.8 mi Calm Calm - N/A   Overcast
5:15 AM 35.6 °F - 35.6 °F 100% 29.70 in 0.8 mi Calm Calm - N/A   Overcast
5:35 AM 37.4 °F - 37.4 °F 100% 29.70 in 1.2 mi Calm Calm - N/A   Overcast
5:55 AM 37.4 °F - 37.4 °F 100% 29.70 in 1.2 mi Calm Calm - N/A   Overcast
6:15 AM 37.4 °F - 37.4 °F 100% 29.71 in 2.0 mi Calm Calm - N/A   Overcast
6:35 AM 37.4 °F - 37.4 °F 100% 29.72 in 2.5 mi Calm Calm - N/A   Overcast
6:36 AM 37.4 °F - 37.4 °F 100% 29.72 in 2.5 mi Calm Calm - N/A   Overcast
6:55 AM 37.4 °F 32.8 °F 37.4 °F 100% 29.72 in 3.0 mi West 5.8 mph - N/A   Overcast
7:15 AM 37.4 °F 32.8 °F 37.4 °F 100% 29.73 in 3.0 mi WSW 5.8 mph - N/A   Overcast
7:36 AM 37.4 °F - 37.4 °F 100% 29.73 in 2.5 mi Calm Calm - N/A   Overcast
7:55 AM 37.4 °F - 37.4 °F 100% 29.74 in 2.5 mi Calm Calm - N/A   Overcast
7:56 AM 37.4 °F - 37.4 °F 100% 29.74 in 2.5 mi Calm Calm - N/A   Overcast
8:16 AM 37.4 °F 31.4 °F 37.4 °F 100% 29.75 in 5.0 mi West 8.1 mph - N/A   Overcast
8:35 AM 37.4 °F - 35.6 °F 93% 29.75 in 7.0 mi Calm Calm - N/A   Mostly Cloudy
8:55 AM 37.4 °F - 35.6 °F 93% 29.76 in 10.0 mi Calm Calm - N/A   Overcast
9:15 AM 37.4 °F 32.8 °F 35.6 °F 93% 29.77 in 10.0 mi WSW 5.8 mph - N/A   Overcast
9:16 AM 37.4 °F 32.8 °F 35.6 °F 93% 29.77 in 10.0 mi WSW 5.8 mph - N/A   Overcast
9:35 AM 37.4 °F - 35.6 °F 93% 29.78 in 10.0 mi Calm Calm - N/A   Overcast
9:55 AM 37.4 °F - 35.6 °F 93% 29.79 in 10.0 mi Calm Calm - N/A   Overcast
9:56 AM 37.4 °F - 35.6 °F 93% 29.79 in 10.0 mi Calm Calm - N/A   Overcast
10:15 AM 37.4 °F - 35.6 °F 93% 29.79 in 10.0 mi Calm Calm - N/A   Overcast
10:35 AM 37.4 °F 32.8 °F 35.6 °F 93% 29.80 in 10.0 mi West 5.8 mph - N/A   Mostly Cloudy
10:55 AM 37.4 °F 32.8 °F 35.6 °F 93% 29.80 in 10.0 mi WSW 5.8 mph - N/A   Mostly Cloudy
11:15 AM 39.2 °F 34.2 °F 37.4 °F 93% 29.80 in 10.0 mi WSW 6.9 mph - N/A   Mostly Cloudy
11:35 AM 39.2 °F 35.9 °F 37.4 °F 93% 29.80 in 10.0 mi West 4.6 mph - N/A   Mostly Cloudy
11:55 AM 39.2 °F 35.9 °F 37.4 °F 93% 29.80 in 10.0 mi West 4.6 mph - N/A   Mostly Cloudy
11:56 AM 39.2 °F 34.2 °F 37.4 °F 93% 29.80 in 10.0 mi West 6.9 mph - N/A   Mostly Cloudy
12:15 PM 39.2 °F - 37.4 °F 93% 29.81 in 10.0 mi Calm Calm - N/A   Mostly Cloudy
12:16 PM 39.2 °F - 37.4 °F 93% 29.81 in 10.0 mi Calm Calm - N/A   Mostly Cloudy
12:35 PM 39.2 °F 35.0 °F 37.4 °F 93% 29.82 in 10.0 mi WSW 5.8 mph - N/A   Mostly Cloudy
12:55 PM 39.2 °F 33.6 °F 37.4 °F 93% 29.82 in 10.0 mi WSW 8.1 mph - N/A   Mostly Cloudy
1:15 PM 41.0 °F 38.0 °F 37.4 °F 87% 29.83 in 10.0 mi West 4.6 mph - N/A   Overcast
1:35 PM 42.8 °F - 37.4 °F 81% 29.83 in 10.0 mi Calm Calm - N/A   Overcast
1:55 PM 42.8 °F 37.5 °F 39.2 °F 87% 29.84 in 10.0 mi West 9.2 mph - N/A   Overcast
2:15 PM 42.8 °F 36.6 °F 39.2 °F 87% 29.85 in 10.0 mi West 11.5 mph - N/A   Overcast
2:16 PM 42.8 °F 36.6 °F 37.4 °F 81% 29.85 in 10.0 mi West 11.5 mph - N/A   Overcast
2:35 PM 42.8 °F 38.6 °F 39.2 °F 87% 29.85 in 10.0 mi West 6.9 mph - N/A   Overcast
2:55 PM 42.8 °F 37.0 °F 37.4 °F 81% 29.86 in 10.0 mi West 10.4 mph - N/A   Overcast
3:15 PM 42.8 °F 38.6 °F 39.2 °F 87% 29.86 in 10.0 mi WNW 6.9 mph - N/A   Overcast
3:35 PM 42.8 °F - 37.4 °F 81% 29.87 in 10.0 mi Calm Calm - N/A   Overcast
3:55 PM 42.8 °F - 39.2 °F 87% 29.87 in 10.0 mi Calm Calm - N/A   Overcast
3:56 PM 42.8 °F - 39.2 °F 87% 29.87 in 10.0 mi Calm Calm - N/A   Overcast
4:15 PM 42.8 °F - 39.2 °F 87% 29.88 in 10.0 mi Calm Calm - N/A   Overcast
4:35 PM 41.0 °F - 37.4 °F 87% 29.88 in 10.0 mi Calm Calm - N/A   Overcast
4:36 PM 41.0 °F - 37.4 °F 87% 29.88 in 10.0 mi Calm Calm - N/A   Overcast
4:55 PM 41.0 °F - 37.4 °F 87% 29.88 in 10.0 mi Calm Calm - N/A   Overcast
4:56 PM 41.0 °F - 37.4 °F 87% 29.88 in 10.0 mi Calm Calm - N/A   Overcast
5:15 PM 39.2 °F - 37.4 °F 93% 29.88 in 10.0 mi Calm Calm - N/A   Overcast
5:16 PM 39.2 °F - 37.4 °F 93% 29.88 in 10.0 mi Calm Calm - N/A   Overcast
5:55 PM 37.4 °F - 37.4 °F 100% 29.90 in 10.0 mi Calm Calm - N/A   Mostly Cloudy
6:15 PM 39.2 °F - 37.4 °F 93% 29.92 in 10.0 mi Calm Calm - N/A   Overcast
6:35 PM 39.2 °F - 37.4 °F 93% 29.91 in 10.0 mi Calm Calm - N/A   Overcast
7:15 PM 37.4 °F - 37.4 °F 100% 29.92 in 10.0 mi Calm Calm - N/A   Overcast
7:16 PM 37.4 °F - 37.4 °F 100% 29.92 in 10.0 mi Calm Calm - N/A   Overcast
7:35 PM 39.2 °F 35.9 °F 37.4 °F 93% 29.93 in 10.0 mi West 4.6 mph - N/A   Overcast
7:36 PM 39.2 °F 37.0 °F 37.4 °F 93% 29.93 in 10.0 mi West 3.5 mph - N/A   Overcast
7:55 PM 39.2 °F - 37.4 °F 93% 29.94 in 10.0 mi Calm Calm - N/A   Overcast
7:56 PM 39.2 °F - 37.4 °F 93% 29.94 in 10.0 mi Calm Calm - N/A   Overcast
8:35 PM 39.2 °F - 37.4 °F 93% 29.95 in 10.0 mi Calm Calm - N/A   Overcast
8:55 PM 37.4 °F - 35.6 °F 93% 29.95 in 10.0 mi Calm Calm - N/A   Scattered Clouds
9:15 PM 37.4 °F - 35.6 °F 93% 29.96 in 10.0 mi Calm Calm - N/A   Scattered Clouds
9:16 PM 35.6 °F - 35.6 °F 100% 29.96 in 10.0 mi Calm Calm - N/A   Scattered Clouds
9:35 PM 35.6 °F - 35.6 °F 100% 29.97 in 10.0 mi Calm Calm - N/A   Scattered Clouds
9:36 PM 35.6 °F - 35.6 °F 100% 29.97 in 10.0 mi Calm Calm - N/A   Mostly Cloudy
9:55 PM 33.8 °F - 33.8 °F 100% 29.97 in 7.0 mi Calm Calm - N/A   Mostly Cloudy
10:15 PM 33.8 °F - 33.8 °F 100% 29.98 in 7.0 mi Calm Calm - N/A   Overcast
10:35 PM 35.6 °F - 35.6 °F 100% 29.97 in 7.0 mi Calm Calm - N/A   Overcast
10:36 PM 35.6 °F - 35.6 °F 100% 29.97 in 7.0 mi Calm Calm - N/A   Overcast
10:55 PM 35.6 °F - 35.6 °F 100% 29.97 in 10.0 mi Calm Calm - N/A   Overcast
11:15 PM 35.6 °F - 35.6 °F 100% 29.98 in 10.0 mi Calm Calm - N/A   Overcast
11:35 PM 35.6 °F - 35.6 °F 100% 29.99 in 10.0 mi Calm Calm - N/A   Overcast
11:55 PM 35.6 °F - 35.6 °F 100% 29.99 in 10.0 mi Calm Calm - N/A   Overcast